QPF
0.00 0.00 0.00 0.00 0.00 0.00 0.00 0.00 0.00 0.00 0.00 0.00 0.00 0.00 0.00 0.00 0.00 0.00 0.00 0.00 0.00 0.00 0.00 0.00 0.00 0.00 0.00 0.00 0.00 0.00 0.00 0.00 0.00 0.00 0.00 0.00 0.01 0.00 0.00 0.00 0.00 0.00 0.00 0.00
0.00 0.00 0.00 0.00 0.00 0.00 0.00 0.00 0.00 0.00 0.00 0.00 0.00 0.00 0.00 0.00 0.00 0.00 0.00 0.00 0.00 0.00 0.00 0.00 0.00 0.00 0.00 0.00 0.00 0.00 0.00 0.00 0.00 0.00 0.00 0.00 0.00 0.00 0.00 0.00 0.00 0.00 0.00 0.00
0.00 0.00 0.00 0.00 0.00 0.00 0.00 0.00 0.00 0.00 0.00 0.00 0.00 0.00 0.00 0.00 0.00 0.00 0.00 0.00 0.00 0.00 0.00 0.00 0.00 0.00 0.00 0.00 0.00 0.00 0.00 0.00 0.00 0.00 0.00 0.00 0.00 0.00 0.00 0.00 0.00 0.00 0.00 0.00
0.00 0.00 0.00 0.00 0.00 0.00 0.00 0.00 0.00 0.00 0.00 0.00 0.00 0.00 0.00 0.00 0.00 0.00 0.00 0.00 0.00 0.00 0.00 0.00 0.00 0.00 0.00 0.00 0.00 0.00 0.00 0.00 0.00 0.00 0.00 0.00 0.01 0.00 0.00 0.00 0.00 0.00 0.00 0.00
0.00 0.00 0.00 0.00 0.00 0.00 0.00 0.00 0.00 0.00 0.00 0.00 0.00 0.00 0.00 0.00 0.00 0.00 0.00 0.00 0.00 0.00 0.00 0.00 0.00 0.00 0.00 0.00 0.00 0.00 0.00 0.00 0.00 0.00 0.00 0.00 0.00 0.00 0.00 0.00 0.00 0.00 0.00 0.00
0.00 0.00 0.00 0.00 0.00 0.00 0.00 0.00 0.00 0.00 0.00 0.00 0.00 0.00 0.00 0.00 0.00 0.00 0.00 0.00 0.00 0.00 0.00 0.00 0.00 0.00 0.00 0.00 0.00 0.00 0.00 0.00 0.00 0.00 0.00 0.00 0.00 0.00 0.00 0.00 0.00 0.00 0.00 0.00
0.00 0.00 0.00 0.00 0.00 0.00 0.00 0.00 0.00 0.00 0.00 0.00 0.00 0.00 0.00 0.00 0.00 0.00 0.00 0.00 0.00 0.00 0.00 0.00 0.00 0.00 0.00 0.00 0.00 0.00 0.00 0.00 0.00 0.00 0.00 0.00 0.00 0.00 0.00 0.00 0.00 0.00 0.00 0.00
0.00 0.00 0.00 0.00 0.00 0.00 0.00 0.00 0.00 0.00 0.00 0.00 0.00 0.00 0.00 0.00 0.00 0.00 0.00 0.00 0.00 0.00 0.00 0.00 0.00 0.00 0.00 0.00 0.00 0.00 0.00 0.00 0.00 0.00 0.00 0.00 0.00 0.00 0.00 0.00 0.00 0.00 0.00 0.00
0.00 0.00 0.00 0.00 0.00 0.00 0.00 0.00 0.00 0.00 0.00 0.00 0.00 0.00 0.00 0.00 0.00 0.00 0.00 0.00 0.00 0.00 0.00 0.00 0.00 0.00 0.00 0.00 0.00 0.00 0.00 0.00 0.00 0.00 0.00 0.00 0.00 0.00 0.00 0.00 0.00 0.00 0.00 0.00
0.00 0.00 0.00 0.00 0.00 0.00 0.00 0.00 0.00 0.00 0.00 0.00 0.00 0.00 0.00 0.00 0.00 0.00 0.00 0.00 0.00 0.00 0.00 0.00 0.00 0.00 0.00 0.00 0.00 0.00 0.00 0.00 0.00 0.00 0.00 0.00 0.00 0.00 0.00 0.00 0.00 0.00 0.00 0.00
0.00 0.00 0.00 0.00 0.00 0.00 0.00 0.00 0.00 0.00 0.00 0.00 0.00 0.00 0.00 0.00 0.00 0.00 0.00 0.00 0.00 0.00 0.00 0.00 0.00 0.00 0.00 0.00 0.00 0.00 0.00 0.00 0.00 0.00 0.00 0.00 0.00 0.00 0.00 0.00 0.00 0.00 0.00 0.00
0.00 0.00 0.00 0.00 0.00 0.00 0.00 0.00 0.00 0.00 0.00 0.00 0.00 0.00 0.00 0.00 0.00 0.00 0.00 0.00 0.00 0.00 0.00 0.00 0.00 0.00 0.00 0.00 0.00 0.00 0.00 0.00 0.00 0.00 0.00 0.00 0.00 0.00 0.00 0.00 0.00 0.00 0.00 0.00
0.00 0.00 0.00 0.00 0.00 0.00 0.00 0.00 0.00 0.00 0.00 0.00 0.00 0.00 0.00 0.00 0.00 0.00 0.00 0.00 0.00 0.00 0.00 0.00 0.00 0.00 0.00 0.00 0.00 0.00 0.00 0.00 0.00 0.00 0.00 0.00 0.00 0.00 0.00 0.00 0.00 0.00 0.00 0.00
0.00 0.00 0.00 0.00 0.00 0.00 0.00 0.00 0.00 0.00 0.00 0.00 0.00 0.00 0.00 0.00 0.00 0.00 0.00 0.00 0.00 0.00 0.00 0.00 0.00 0.00 0.00 0.00 0.00 0.00 0.00 0.00 0.00 0.00 0.00 0.00 0.00 0.00 0.00 0.00 0.00 0.00 0.00 0.00
0.00 0.00 0.00 0.00 0.00 0.00 0.00 0.00 0.00 0.00 0.00 0.00 0.00 0.00 0.00 0.00 0.00 0.00 0.00 0.00 0.00 0.00 0.00 0.00 0.00 0.00 0.00 0.00 0.00 0.00 0.00 0.00 0.00 0.00 0.00 0.00 0.00 0.00 0.00 0.00 0.00 0.00 0.00 0.00
0.00 0.00 0.00 0.00 0.00 0.00 0.00 0.00 0.00 0.00 0.00 0.00 0.00 0.00 0.00 0.00 0.00 0.00 0.00 0.00 0.00 0.00 0.00 0.00 0.00 0.00 0.00 0.00 0.00 0.00 0.00 0.00 0.00 0.00 0.00 0.00 0.00 0.00 0.00 0.00 0.00 0.00 0.00 0.00
0.00 0.00 0.00 0.00 0.00 0.00 0.00 0.00 0.00 0.00 0.00 0.00 0.00 0.00 0.00 0.00 0.00 0.00 0.00 0.00 0.00 0.00 0.00 0.00 0.00 0.00 0.00 0.00 0.00 0.00 0.00 0.00 0.00 0.00 0.00 0.00 0.00 0.00 0.00 0.00 0.00 0.00 0.00 0.00
0.00 0.00 0.00 0.00 0.00 0.00 0.00 0.00 0.00 0.00 0.00 0.00 0.00 0.00 0.00 0.00 0.00 0.00 0.00 0.00 0.00 0.00 0.00 0.00 0.00 0.00 0.00 0.00 0.00 0.00 0.00 0.00 0.00 0.00 0.00 0.00 0.00 0.00 0.00 0.00 0.00 0.00 0.00 0.00
0.00 0.00 0.00 0.00 0.00 0.00 0.00 0.00 0.00 0.00 0.00 0.00 0.00 0.00 0.02 0.00 0.00 0.00 0.00 0.00 0.00 0.00 0.00 0.00 0.00 0.00 0.00 0.00 0.00 0.00 0.00 0.00 0.00 0.00 0.00 0.00 0.00 0.00 0.00 0.00 0.00 0.00 0.00 0.01
0.00 0.00 0.00 0.01 0.00 0.00 0.00 0.00 0.00 0.00 0.00 0.00 0.00 0.00 0.01 0.01 0.00 0.00 0.00 0.00 0.00 0.00 0.00 0.00 0.00 0.00 0.00 0.00 0.00 0.00 0.00 0.00 0.00 0.00 0.00 0.00 0.00 0.00 0.00 0.00 0.00 0.01 0.01 0.02
0.00 0.00 0.00 0.00 0.00 0.00 0.01 0.03 0.03 0.01 0.00 0.00 0.00 0.00 0.01 0.01 0.00 0.00 0.00 0.00 0.00 0.00 0.00 0.00 0.00 0.00 0.00 0.00 0.00 0.00 0.00 0.00 0.00 0.00 0.00 0.00 0.00 0.00 0.00 0.00 0.01 0.03 0.03 0.03
0.00 0.00 0.00 0.00 0.00 0.01 0.02 0.01 0.02 0.02 0.01 0.00 0.00 0.00 0.00 0.00 0.00 0.01 0.01 0.01 0.00 0.00 0.00 0.00 0.01 0.01 0.00 0.00 0.00 0.00 0.00 0.00 0.00 0.00 0.00 0.00 0.00 0.00 0.00 0.00 0.01 0.01 0.00 0.00
0.00 0.00 0.00 0.00 0.01 0.01 0.00 0.00 0.01 0.04 0.06 0.04 0.02 0.02 0.00 0.00 0.00 0.00 0.01 0.01 0.01 0.00 0.00 0.00 0.03 0.03 0.00 0.00 0.00 0.00 0.00 0.00 0.00 0.00 0.00 0.00 0.00 0.00 0.00 0.00 0.00 0.00 0.00 0.00
0.00 0.01 0.01 0.01 0.01 0.02 0.01 0.01 0.04 0.05 0.11 0.09 0.07 0.05 0.02 0.00 0.00 0.00 0.00 0.00 0.00 0.01 0.01 0.04 0.08 0.06 0.01 0.00 0.00 0.00 0.00 0.00 0.00 0.00 0.00 0.00 0.00 0.00 0.00 0.00 0.00 0.00 0.00 0.00
0.00 0.01 0.02 0.01 0.01 0.01 0.00 0.00 0.01 0.02 0.05 0.04 0.04 0.03 0.04 0.03 0.02 0.00 0.00 0.01 0.00 0.01 0.03 0.08 0.13 0.08 0.03 0.01 0.00 0.00 0.00 0.00 0.00 0.00 0.00 0.00 0.00 0.00 0.00 0.00 0.00 0.00 0.00 0.00
0.00 0.00 0.01 0.01 0.01 0.02 0.01 0.01 0.00 0.00 0.01 0.03 0.05 0.01 0.03 0.04 0.02 0.01 0.01 0.01 0.04 0.10 0.14 0.15 0.20 0.15 0.05 0.01 0.00 0.00 0.00 0.00 0.00 0.00 0.00 0.00 0.00 0.00 0.00 0.00 0.00 0.00 0.00 0.00
0.00 0.00 0.00 0.00 0.00 0.00 0.01 0.00 0.00 0.00 0.01 0.04 0.04 0.05 0.05 0.03 0.03 0.03 0.04 0.06 0.06 0.12 0.15 0.10 0.09 0.08 0.04 0.03 0.00 0.00 0.00 0.00 0.00 0.00 0.00 0.00 0.00 0.00 0.00 0.00 0.00 0.00 0.00 0.00
MSLP
1017.82 1017.01 1016.07 1015.29 1014.22 1012.87 1010.84 1009.20 1005.12 1001.07 1001.89 1003.19 1003.30 1002.77 1001.53 999.99 998.57 997.58 996.81 995.82 995.37 995.36 995.05 994.76 994.01 993.04 992.49 992.14 992.81 993.76 994.82 996.18 998.92 1000.19 1000.71 1000.53 1001.21 1001.04 1001.26 1001.20 1001.93 1001.69 1000.53 998.73
1017.79 1017.08 1016.09 1015.32 1014.61 1014.30 1013.48 1010.20 1005.37 1001.00 1000.94 1001.97 1002.09 1001.47 1000.65 999.67 998.52 997.34 996.42 995.78 995.18 995.29 995.46 995.36 994.06 992.94 991.80 991.17 991.80 992.77 993.55 995.40 998.52 1000.71 1001.18 1000.41 1000.29 999.00 999.82 999.32 999.55 999.97 999.55 996.85
1017.82 1017.07 1016.23 1015.15 1014.39 1013.99 1013.76 1010.64 1005.75 1002.03 1001.21 1001.22 1001.39 1000.81 999.84 998.78 997.72 996.94 995.98 995.67 995.06 995.38 995.57 995.10 994.38 993.40 992.03 991.44 991.59 992.21 993.11 994.00 996.16 998.76 999.89 1000.24 1000.28 999.24 997.60 997.75 998.45 998.23 997.50 996.61
1017.86 1017.10 1016.33 1015.14 1013.94 1012.62 1012.66 1009.95 1006.62 1005.29 1003.28 1002.52 1002.03 1000.88 999.76 998.41 997.09 996.15 995.54 995.36 995.55 995.76 995.76 995.35 994.63 993.72 992.87 992.33 992.47 992.52 993.38 994.20 995.35 996.48 997.38 998.04 999.47 997.72 996.45 996.25 996.52 996.92 996.69 996.58
1017.92 1017.23 1016.47 1015.55 1014.27 1012.13 1011.61 1010.14 1009.09 1007.24 1005.97 1003.52 1001.96 1000.21 999.26 998.26 996.97 996.16 995.13 995.18 995.48 995.55 995.69 995.30 994.96 994.36 993.74 993.55 993.00 993.15 993.30 994.72 995.56 996.21 996.30 996.47 997.64 995.79 995.15 994.99 994.85 995.36 996.14 996.78
1018.02 1017.40 1016.79 1016.06 1015.29 1013.79 1012.78 1012.00 1010.43 1008.77 1006.13 1004.52 1002.98 1000.69 999.35 998.09 996.97 995.73 995.41 994.77 994.93 995.15 995.02 994.74 994.62 994.44 994.07 994.00 994.03 993.90 994.18 995.20 996.27 996.76 996.43 996.24 995.86 994.70 994.16 993.69 993.63 994.96 996.15 997.27
1018.14 1017.53 1016.97 1016.42 1016.09 1016.03 1015.71 1013.74 1012.20 1010.09 1007.45 1005.81 1004.13 1002.40 1000.42 998.77 997.79 996.73 995.64 995.22 994.53 994.42 994.47 994.84 995.02 994.81 994.45 994.24 994.10 994.02 994.54 995.38 996.32 996.97 996.88 996.29 994.96 993.73 993.50 994.04 994.33 994.75 995.88 997.21
1018.15 1017.65 1017.12 1016.68 1016.30 1015.98 1015.52 1014.14 1012.91 1010.74 1008.90 1006.96 1005.26 1003.55 1002.09 1000.06 998.66 997.79 996.52 995.81 995.23 994.60 994.95 995.95 996.34 996.03 995.39 995.00 994.65 994.55 994.86 995.49 996.57 996.99 996.76 995.89 994.56 994.01 994.17 994.33 996.19 996.08 996.71 997.65
1018.07 1017.65 1017.20 1016.73 1016.33 1015.90 1015.24 1013.62 1012.44 1011.45 1010.03 1006.36 1006.41 1005.36 1003.37 1001.60 1000.29 999.02 997.35 996.58 995.97 995.78 996.37 997.09 997.61 997.39 996.67 996.08 995.15 994.60 994.97 995.53 996.85 996.90 997.02 996.37 995.26 994.33 994.12 994.80 996.72 997.20 997.51 998.37
1018.07 1017.51 1017.06 1016.63 1016.19 1015.82 1015.61 1013.78 1012.87 1012.02 1010.40 1007.42 1007.21 1006.29 1004.95 1003.54 1002.29 1001.20 999.71 998.85 997.20 996.74 997.78 998.45 998.61 997.93 997.13 996.78 996.23 995.56 995.67 995.81 996.66 997.04 996.85 996.28 995.64 994.66 994.52 996.52 998.55 998.18 998.64 999.29
1017.87 1017.42 1016.94 1016.42 1016.03 1015.72 1015.53 1013.86 1012.65 1012.50 1010.77 1008.04 1006.98 1006.19 1005.73 1004.53 1003.23 1002.53 1001.37 999.93 998.38 998.00 998.61 999.26 999.08 998.10 997.11 996.82 996.16 995.79 995.77 996.03 996.33 996.60 996.92 997.17 995.97 996.09 997.06 998.32 998.30 998.96 999.82 1000.32
1017.58 1017.11 1016.69 1016.20 1015.82 1015.57 1015.39 1014.06 1012.68 1012.32 1011.53 1008.14 1006.31 1005.42 1004.89 1004.78 1003.61 1003.84 1002.39 1001.70 1001.17 999.80 999.82 999.86 999.43 998.31 997.41 996.58 996.01 994.68 995.65 995.31 995.78 996.11 997.06 996.92 996.62 997.21 997.62 998.12 998.74 999.65 1000.19 1001.03
1017.11 1016.65 1016.23 1015.83 1015.47 1015.25 1015.28 1014.47 1013.70 1012.81 1010.74 1007.35 1005.41 1003.12 1001.69 1002.48 1002.33 1002.79 1002.93 1001.46 1000.97 1000.88 1000.84 1000.74 1000.00 998.80 997.68 997.09 996.56 995.99 995.74 995.02 996.06 996.21 997.20 996.92 996.90 997.16 997.74 998.23 998.79 999.27 1000.07 1000.73
1016.66 1016.13 1015.72 1015.27 1014.97 1014.73 1014.57 1014.20 1013.40 1013.11 1011.43 1008.82 1003.94 1002.10 1001.51 999.95 1000.62 1001.25 1001.39 1001.53 1001.20 1001.43 1001.38 1001.21 1000.44 999.54 998.11 997.87 997.27 996.94 996.35 996.02 996.66 997.00 996.91 996.53 996.86 996.86 997.75 998.56 999.02 999.72 1000.21 1000.93
1016.06 1015.54 1015.05 1014.66 1014.33 1014.05 1013.54 1012.76 1012.22 1012.27 1011.85 1009.33 1005.69 1003.01 1000.18 999.66 999.49 1000.00 1000.44 1000.89 1001.23 1001.76 1001.94 1001.36 1000.80 999.54 998.83 998.41 997.84 997.85 997.46 997.74 998.00 997.87 997.11 997.24 997.26 997.25 997.71 998.57 999.31 999.90 1000.54 1001.48
1015.46 1014.95 1014.37 1014.00 1013.75 1013.59 1013.09 1011.31 1010.78 1011.09 1011.31 1010.32 1006.63 1002.61 1000.37 999.02 998.88 999.55 1000.08 1000.52 1000.92 1001.42 1001.49 1001.19 1000.13 999.26 999.34 999.27 998.84 998.23 997.89 997.65 997.85 998.10 997.44 997.49 997.64 997.68 998.03 998.89 999.34 999.94 1000.46 1001.22
1014.58 1014.03 1013.47 1013.14 1013.07 1013.21 1012.54 1011.60 1011.29 1011.03 1011.03 1009.96 1006.75 1003.03 999.79 998.98 999.18 999.71 1000.01 1000.17 1000.58 1001.01 1001.38 1000.82 1000.38 999.66 999.08 998.97 999.00 998.27 997.94 997.85 997.94 997.90 997.89 997.97 997.98 998.23 998.56 999.02 999.44 999.89 1000.49 1001.25
1013.57 1012.80 1012.36 1012.14 1012.17 1012.27 1011.52 1009.77 1010.27 1010.82 1010.48 1009.25 1006.92 1002.97 1000.04 998.86 999.31 999.52 999.37 999.93 1000.34 1000.52 1000.63 999.91 999.90 999.58 999.02 998.90 998.41 998.07 997.85 997.81 997.93 998.12 998.07 998.19 998.32 998.39 998.64 998.98 999.52 1000.32 1001.07 1001.56
1012.58 1011.38 1011.07 1011.54 1011.56 1010.66 1010.40 1009.97 1010.04 1010.33 1010.60 1008.88 1006.34 1003.64 1001.21 999.29 999.11 999.06 999.04 999.21 999.89 999.39 999.69 999.44 999.08 999.01 998.74 998.22 998.06 997.83 997.73 997.81 997.86 997.94 998.16 998.35 998.78 999.05 999.16 999.69 1000.14 1000.99 1001.94 1002.60
1011.90 1010.56 1010.87 1010.91 1011.16 1010.95 1010.67 1010.35 1010.09 1009.93 1009.07 1008.41 1006.10 1003.82 1002.11 1000.62 999.55 999.20 999.36 999.09 999.21 998.91 998.63 998.44 998.58 998.39 997.91 997.44 997.10 997.50 997.93 997.91 997.97 998.14 998.62 999.02 999.47 999.94 1000.72 1001.11 1001.26 1002.21 1003.42 1004.18
1012.54 1012.34 1012.18 1011.65 1010.95 1010.62 1009.72 1008.87 1008.42 1007.78 1007.02 1005.86 1004.13 1002.95 1002.16 1001.12 1000.09 999.94 999.71 999.51 999.18 998.77 998.19 998.21 998.37 998.55 998.29 997.92 997.84 997.90 998.04 998.15 998.29 998.52 998.88 999.89 1000.39 1001.14 1002.16 1002.49 1002.63 1003.37 1004.06 1004.82
1014.12 1014.01 1013.33 1012.40 1011.11 1009.96 1008.81 1007.35 1006.21 1005.53 1004.43 1003.25 1002.45 1001.48 1001.11 1000.65 999.98 1000.47 1001.42 1001.18 1000.28 999.48 998.59 998.32 998.75 999.28 998.82 998.58 998.78 998.88 998.94 999.05 999.42 999.68 1000.16 1000.73 1001.32 1001.99 1002.33 1002.66 1003.01 1003.44 1003.77 1004.73
1013.14 1013.33 1012.68 1011.74 1010.29 1009.29 1007.87 1006.16 1005.02 1004.37 1003.60 1002.95 1001.91 1001.04 1000.63 1000.16 1000.05 1000.54 1001.52 1001.75 1000.95 1000.00 999.80 999.38 999.78 999.66 999.54 999.52 999.50 999.65 999.80 1000.00 1000.42 1000.80 1001.05 1001.43 1001.90 1002.18 1002.51 1002.93 1003.14 1003.23 1003.57 1004.16
1012.72 1012.01 1011.38 1010.49 1009.06 1007.90 1006.55 1006.12 1005.46 1004.98 1004.37 1003.42 1002.60 1001.79 1001.36 1000.73 1000.50 1000.50 1000.62 1000.68 1000.53 1000.93 1000.15 999.91 1000.31 1000.46 1000.36 1000.39 1000.52 1000.66 1000.89 1000.91 1001.28 1001.65 1002.03 1002.43 1002.72 1003.04 1003.18 1003.17 1003.30 1003.44 1003.57 1003.76
1012.36 1011.37 1009.78 1008.39 1007.44 1007.05 1006.37 1005.79 1005.43 1005.29 1004.84 1003.91 1002.81 1002.50 1002.53 1001.78 1001.13 1000.81 1000.82 1000.82 1000.47 1000.17 1000.44 1000.77 1001.03 1001.08 1001.26 1001.42 1001.53 1001.74 1001.90 1002.04 1002.24 1002.54 1002.89 1003.22 1003.41 1003.65 1003.81 1003.91 1004.02 1004.09 1004.11 1004.09
1011.94 1010.66 1008.88 1007.39 1006.92 1006.66 1006.22 1006.00 1005.62 1005.15 1004.46 1003.55 1003.58 1003.53 1003.64 1003.36 1001.82 1001.08 1000.88 1000.86 1001.16 1001.68 1001.57 1001.54 1001.67 1001.92 1001.88 1002.03 1002.21 1002.44 1002.62 1002.75 1002.93 1003.10 1003.30 1003.52 1003.79 1003.99 1004.10 1004.16 1004.26 1004.34 1004.29 1004.30
1010.55 1009.17 1007.93 1007.42 1006.74 1006.30 1006.04 1005.70 1005.53 1004.99 1004.53 1004.16 1004.07 1004.35 1004.21 1003.13 1001.96 1001.34 1001.51 1002.23 1002.76 1002.73 1002.85 1002.75 1002.26 1002.31 1002.54 1002.64 1002.82 1002.98 1003.04 1003.23 1003.37 1003.44 1003.54 1003.76 1003.92 1003.97 1004.13 1004.30 1004.30 1004.31 1004.27 1004.12
Thickness
5636 5641 5646 5651 5660 5670 5687 5699 5710 5771 5768 5726 5733 5733 5756 5779 5789 5804 5803 5816 5816 5810 5819 5816 5823 5838 5854 5885 5879 5852 5866 5845 5788 5808 5824 5836 5821 5818 5821 5792 5805 5809 5821 5820
5629 5631 5638 5644 5649 5651 5655 5680 5710 5762 5761 5715 5725 5748 5756 5771 5778 5788 5797 5802 5821 5825 5809 5795 5827 5841 5877 5893 5879 5864 5871 5836 5784 5771 5797 5826 5814 5836 5831 5842 5837 5815 5806 5829
5622 5624 5629 5637 5643 5646 5648 5672 5695 5727 5736 5739 5730 5735 5746 5755 5787 5789 5803 5799 5815 5807 5805 5817 5815 5831 5867 5880 5876 5873 5870 5850 5823 5776 5787 5804 5795 5816 5845 5843 5814 5822 5829 5857
5615 5618 5621 5630 5639 5651 5651 5672 5688 5697 5703 5712 5720 5732 5742 5750 5760 5791 5803 5791 5790 5790 5781 5797 5805 5829 5845 5862 5858 5869 5856 5826 5844 5837 5835 5809 5801 5826 5842 5841 5840 5827 5845 5854
5609 5612 5615 5620 5630 5647 5653 5661 5661 5678 5678 5706 5718 5733 5736 5746 5763 5771 5780 5775 5789 5792 5780 5791 5794 5817 5824 5826 5853 5850 5855 5815 5832 5819 5842 5842 5808 5837 5842 5856 5861 5855 5858 5835
5603 5606 5608 5611 5615 5626 5636 5641 5652 5658 5677 5688 5699 5720 5735 5748 5766 5778 5784 5790 5784 5780 5793 5811 5818 5827 5833 5829 5824 5822 5826 5811 5803 5789 5828 5827 5803 5836 5853 5865 5875 5857 5826 5835
5595 5597 5599 5602 5602 5601 5602 5618 5628 5640 5656 5670 5685 5700 5720 5735 5748 5752 5775 5782 5782 5799 5810 5808 5812 5817 5821 5825 5827 5836 5813 5809 5795 5778 5801 5762 5824 5863 5866 5854 5860 5864 5858 5842
5587 5588 5589 5591 5593 5593 5596 5606 5614 5629 5636 5656 5670 5684 5695 5716 5731 5738 5757 5771 5782 5798 5789 5762 5757 5768 5784 5799 5815 5820 5826 5809 5786 5767 5773 5804 5834 5846 5840 5835 5820 5843 5838 5840
5580 5580 5581 5582 5584 5585 5590 5602 5610 5616 5623 5655 5655 5658 5683 5698 5710 5724 5749 5768 5777 5778 5760 5749 5735 5730 5762 5766 5796 5825 5820 5813 5786 5785 5768 5758 5810 5841 5854 5847 5785 5830 5831 5826
5573 5573 5574 5574 5575 5576 5577 5590 5595 5603 5612 5640 5642 5646 5660 5685 5694 5698 5720 5732 5748 5770 5738 5726 5723 5732 5767 5750 5759 5776 5784 5786 5771 5769 5769 5794 5816 5835 5847 5783 5772 5813 5815 5811
5568 5567 5567 5568 5568 5568 5569 5580 5588 5587 5604 5625 5638 5650 5653 5668 5686 5682 5699 5714 5728 5736 5721 5719 5726 5737 5757 5758 5774 5775 5777 5768 5767 5775 5770 5759 5815 5808 5780 5786 5801 5801 5799 5798
5562 5562 5561 5561 5561 5560 5560 5568 5577 5580 5588 5616 5639 5651 5661 5663 5676 5672 5691 5695 5696 5717 5711 5717 5727 5737 5753 5755 5750 5801 5767 5781 5775 5770 5757 5786 5802 5793 5799 5797 5794 5789 5787 5784
5559 5558 5557 5556 5556 5555 5550 5554 5558 5565 5587 5616 5636 5655 5677 5679 5685 5688 5671 5693 5705 5707 5721 5716 5725 5730 5752 5741 5747 5761 5778 5794 5770 5773 5771 5777 5783 5793 5793 5794 5790 5787 5781 5780
5555 5556 5555 5554 5553 5551 5548 5547 5551 5555 5572 5592 5637 5668 5671 5693 5691 5692 5695 5693 5703 5708 5711 5707 5714 5722 5750 5736 5750 5751 5764 5772 5761 5759 5771 5781 5785 5786 5780 5778 5780 5778 5779 5772
5553 5554 5554 5553 5552 5550 5550 5553 5558 5559 5565 5587 5615 5644 5678 5688 5694 5693 5695 5693 5694 5691 5690 5697 5700 5725 5729 5737 5744 5734 5750 5742 5731 5729 5762 5760 5765 5773 5775 5766 5766 5769 5766 5758
5551 5551 5552 5552 5550 5548 5549 5568 5567 5564 5565 5572 5602 5645 5664 5685 5693 5689 5688 5688 5689 5689 5689 5694 5711 5732 5722 5713 5715 5742 5750 5756 5756 5744 5761 5758 5764 5769 5770 5762 5760 5757 5751 5749
5552 5552 5554 5553 5550 5546 5551 5565 5561 5562 5564 5572 5597 5630 5670 5683 5683 5681 5682 5688 5686 5685 5683 5689 5700 5711 5717 5709 5701 5736 5747 5749 5747 5751 5753 5751 5758 5750 5760 5758 5754 5747 5745 5740
5553 5556 5557 5556 5552 5549 5556 5569 5565 5562 5566 5577 5590 5625 5655 5681 5668 5667 5686 5678 5681 5682 5684 5698 5697 5706 5708 5698 5724 5738 5743 5743 5741 5743 5748 5746 5749 5752 5753 5750 5742 5733 5727 5728
5555 5561 5561 5555 5553 5563 5562 5563 5564 5563 5563 5572 5597 5616 5628 5671 5670 5677 5682 5686 5670 5692 5681 5690 5697 5692 5685 5711 5717 5726 5731 5732 5735 5740 5739 5738 5735 5732 5738 5735 5726 5717 5710 5705
5553 5561 5560 5559 5550 5549 5552 5558 5562 5563 5571 5575 5591 5620 5625 5652 5663 5668 5672 5681 5675 5672 5685 5700 5690 5691 5715 5723 5727 5722 5724 5727 5730 5723 5719 5721 5717 5716 5707 5707 5711 5701 5689 5682
5541 5537 5539 5539 5543 5548 5561 5568 5571 5578 5582 5594 5609 5621 5624 5647 5652 5656 5667 5667 5675 5670 5683 5684 5683 5680 5698 5710 5714 5720 5723 5724 5723 5723 5722 5710 5709 5700 5691 5690 5691 5685 5679 5670
5524 5519 5521 5528 5541 5554 5563 5578 5591 5594 5600 5615 5618 5630 5638 5646 5662 5652 5641 5645 5658 5660 5685 5684 5673 5681 5695 5700 5705 5707 5709 5708 5707 5707 5702 5699 5694 5688 5685 5683 5681 5679 5675 5665
5525 5521 5526 5535 5550 5548 5566 5583 5596 5601 5609 5615 5625 5629 5641 5649 5656 5647 5638 5631 5639 5667 5659 5666 5666 5681 5689 5691 5696 5696 5698 5699 5695 5691 5691 5690 5684 5684 5682 5678 5676 5675 5671 5665
5526 5534 5528 5543 5553 5562 5578 5578 5588 5595 5602 5611 5619 5625 5630 5642 5644 5647 5645 5651 5655 5643 5652 5661 5663 5672 5677 5679 5681 5680 5679 5683 5681 5677 5677 5675 5672 5669 5668 5669 5668 5666 5662 5660
5522 5533 5542 5558 5566 5566 5574 5583 5588 5590 5593 5605 5616 5620 5619 5626 5635 5642 5644 5642 5646 5659 5652 5656 5659 5664 5665 5665 5666 5667 5667 5668 5668 5667 5663 5661 5660 5657 5655 5654 5653 5652 5649 5648
5518 5529 5547 5563 5563 5563 5570 5573 5580 5586 5595 5608 5607 5603 5603 5599 5626 5634 5637 5643 5639 5638 5645 5652 5654 5653 5656 5657 5659 5658 5658 5658 5658 5657 5656 5654 5651 5650 5649 5648 5646 5642 5641 5639
5526 5536 5551 5554 5561 5564 5567 5572 5574 5584 5591 5592 5599 5594 5597 5613 5622 5632 5631 5621 5623 5630 5633 5636 5646 5647 5647 5649 5648 5649 5650 5649 5648 5649 5649 5648 5648 5648 5643 5639 5638 5638 5636 5635